Home   Weather   East Hants   Past weeks

Flag for Canada Past Weather in East Hants, Nova Scotia, Canada — Yesterday and Last 2 Weeks

32 °F

Partly sunny.

Feels Like: 24 °F
Forecast: 31 / 46 °F
Wind: 10 mph from East

Location: Halifax International Airport

Current Time: Oct 28, 2016 at 9:21:45 AM

Latest Report: Oct 28, 2016 at 8:00 AM

Visibility: 15 mi

Pressure: 30.43 "Hg

Humidity: 80%

Dew Point: 27 °F

Location of East HantsLocation

Past Weather in East Hants — Graph


East Hants Temperature Yesterday

Maximum temperature yesterday: 45 °F (at 3:00 PM)
Minimum temperature yesterday: 32 °F (at 11:00 PM)
Average temperature yesterday: 39 °F

High & Low Weather Summary for the Past Weeks

High68 °F (Oct 19, 4:00 PM)100% (Oct 13, 8:00 AM)30.51 "Hg (Oct 13, 8:00 AM)
Low32 °F (Oct 27, 11:00 PM)48% (Oct 20, 1:00 PM)29.12 "Hg (Oct 22, 6:50 PM)
Average50 °F83%29.96 "Hg
* Reported Oct 13 8:00 AM — Oct 28 8:00 AM, East Hants, Weather by CustomWeather, © 2016

Note: Actual official high and low records may vary slightly from our data, if they occured in-between our weather recording intervals... More about our weather records


East Hants Weather History for the Previous 24 Hours

Scroll right to see more
Time TempWeatherWind HumidityBarometerVisibility
8:00 AM
Fri, Oct 28
32 °FPartly sunny.10 mph80%30.43 "Hg15 mi
7:00 AM32 °FPassing clouds.5 mph80%30.45 "Hg15 mi
6:00 AM32 °FPassing clouds.6 mph80%30.43 "Hg15 mi
5:00 AM32 °FPassing clouds.7 mph80%30.45 "Hg15 mi
4:00 AM32 °FPassing clouds.7 mph80%30.48 "Hg15 mi
3:00 AM32 °FPassing clouds.6 mph80%30.49 "Hg15 mi
2:00 AM32 °FClear.6 mph80%30.50 "Hg15 mi
1:00 AM32 °FClear.6 mph80%30.50 "Hg15 mi
12:00 AM32 °FClear.6 mph80%30.50 "Hg15 mi
11:00 PM
Thu, Oct 27
32 °FClear.6 mph87%30.50 "Hg15 mi
10:00 PM34 °FClear.6 mph81%30.51 "Hg15 mi
9:00 PM36 °FClear.5 mph75%30.50 "Hg15 mi
8:00 PM37 °FPassing clouds.9 mph70%30.48 "Hg15 mi
7:00 PM39 °FPassing clouds.9 mph70%30.47 "Hg15 mi
6:00 PM41 °FPartly sunny.10 mph66%30.45 "Hg15 mi
5:00 PM45 °FPartly sunny.10 mph61%30.44 "Hg15 mi
4:00 PM45 °FPartly sunny.10 mph61%30.43 "Hg15 mi
3:00 PM45 °FBroken clouds.18 mph66%30.42 "Hg15 mi
2:00 PM43 °FBroken clouds.13 mph71%30.43 "Hg15 mi
1:00 PM43 °FPartly sunny.13 mph66%30.43 "Hg15 mi
12:00 PM43 °FPartly sunny.14 mph71%30.44 "Hg15 mi
11:00 AM43 °FPartly sunny.13 mph76%30.44 "Hg15 mi
10:00 AM39 °FPartly sunny.9 mph93%30.43 "Hg15 mi
9:00 AM39 °FPartly sunny.10 mph93%30.40 "Hg15 mi
Weather by CustomWeather, © 2016

See weather overviewHow to use our weather pages